Quillayute, WA

8:41 PM PDT on July 22, 2017 (GMT -0700)
Quillayute

Weather History for KUIL - June, 2014

Change the Weather History Date:

Friday, June 6, 2014

  Actual Average Record
Temperature  
Mean Temperature 54 °F 54 °F  
Max Temperature 64 °F 62 °F 89 °F (2003)
Min Temperature 43 °F 46 °F 37 °F (1982)
Degree Days  
Heating Degree Days 11 11  
Month to date heating degree days 61 67  
Since 1 June heating degree days 61 67  
Since 1 July heating degree days 4664 5535  
Cooling Degree Days 0 0  
Month to date cooling degree days 0 0  
Year to date cooling degree days 4 1  
Since 1 June cooling degree days 0 0  
Growing Degree Days 5 (Base 50)    
Moisture  
Dew Point 50 °F    
Average Humidity 80    
Maximum Humidity 100    
Minimum Humidity 60    
Precipitation  
Precipitation 0.00 in 0.14 in 0.84 in (1973)
Month to date precipitation 0.00 0.86  
Year to date precipitation 52.19 49.61  
Sea Level Pressure  
Sea Level Pressure 30.17 in    
Wind  
Wind Speed 5 mph (WNW)    
Max Wind Speed 16 mph    
Max Gust Speed 22 mph    
Visibility 4 miles    
Events Rain    
T = Trace of Precipitation, MM = Missing Value Source: NWS Daily Summary

Daily Weather History Graph

Daily Weather History Graph

Search for Another Location

Airport or City:

Trip Planner

Search our weather history database for the weather conditions in past years. The results will help you decide how hot, cold, wet, or windy it might be!

Date:

Astronomy

Jun. 06, 2014 Rise Set
Actual Time 5:20 AM PDT 9:13 PM PDT
Civil Twilight 4:40 AM PDT 9:54 PM PDT
Nautical Twilight 3:44 AM PDT 10:49 PM PDT
Astronomical Twilight 2:19 AM PDT 12:16 AM PDT
Moon 2:10 PM PDT (6/6) 1:44 AM PDT (6/6)
Length of Visible Light 17h 14m
Length of Day
15h 53m
First Quarter, 59% of the Moon is Illuminated
Jun 6
First Quarter
Jun 12
Full
Jun 19
Last Quarter
Jun 27
New
Jul 5
First Quarter

Hourly Weather History & Observations

Time (PDT) Temp. Dew Point Humidity Pressure Visibility Wind Dir Wind Speed Gust Speed Precip Events Conditions
12:53 AM 46.0 °F 46.0 °F 100% 30.15 in 6.0 mi Calm Calm - N/A   Clear
1:53 AM 44.1 °F 43.0 °F 96% 30.14 in 6.0 mi Calm Calm - N/A   Clear
2:18 AM 44.1 °F 44.1 °F 100% 30.14 in 4.0 mi Calm Calm - N/A   Partly Cloudy
2:38 AM 44.1 °F 42.1 °F 93% 30.14 in 7.0 mi Calm Calm - N/A   Mostly Cloudy
2:53 AM 44.1 °F 44.1 °F 100% 30.14 in 7.0 mi Calm Calm - N/A   Overcast
3:53 AM 46.0 °F 45.0 °F 96% 30.14 in 6.0 mi Calm Calm - N/A   Overcast
4:53 AM 46.9 °F 46.9 °F 100% 30.14 in 6.0 mi Calm Calm - N/A   Overcast
5:36 AM 48.0 °F 48.0 °F 100% 30.14 in 2.5 mi Calm Calm - N/A   Overcast
5:46 AM 48.0 °F 48.0 °F 100% 30.14 in 1.2 mi Calm Calm - N/A   Overcast
5:53 AM 48.0 °F 48.0 °F 100% 30.14 in 1.2 mi Calm Calm - N/A   Overcast
6:02 AM 48.0 °F 48.0 °F 100% 30.14 in 1.5 mi Calm Calm - N/A   Overcast
6:13 AM 48.0 °F 48.0 °F 100% 30.14 in 2.5 mi Calm Calm - N/A   Overcast
6:25 AM 48.0 °F 48.0 °F 100% 30.14 in 3.0 mi Calm Calm - N/A   Overcast
6:34 AM 48.9 °F 48.9 °F 100% 30.14 in 2.0 mi Calm Calm - N/A   Overcast
6:53 AM 48.9 °F 48.9 °F 100% 30.15 in 3.0 mi ESE 3.5 mph - N/A   Overcast
7:14 AM 50.0 °F 50.0 °F 100% 30.15 in 3.0 mi Calm Calm - N/A   Overcast
7:25 AM 50.0 °F 50.0 °F 100% 30.15 in 3.0 mi Calm Calm - N/A   Overcast
7:43 AM 50.0 °F 50.0 °F 100% 30.15 in 4.0 mi Calm Calm - N/A   Overcast
7:53 AM 51.8 °F 50.0 °F 94% 30.15 in 4.0 mi Calm Calm - N/A   Overcast
8:53 AM 53.1 °F 50.0 °F 89% 30.16 in 5.0 mi Variable 3.5 mph - N/A   Overcast
9:41 AM 55.9 °F 50.0 °F 80% 30.16 in 5.0 mi WSW 4.6 mph - N/A   Haze
9:51 AM 57.2 °F 51.8 °F 82% 30.16 in 5.0 mi SSW 3.5 mph - N/A   Haze
9:53 AM 57.0 °F 51.1 °F 81% 30.17 in 5.0 mi Calm Calm - N/A   Haze
10:53 AM 59.0 °F 51.1 °F 75% 30.17 in 5.0 mi SSW 5.8 mph - N/A   Haze
11:53 AM 60.1 °F 51.1 °F 72% 30.17 in 6.0 mi WSW 10.4 mph - N/A   Haze
12:53 PM 62.1 °F 51.1 °F 67% 30.17 in 6.0 mi WSW 12.7 mph - N/A   Haze
1:53 PM 63.0 °F 48.9 °F 60% 30.17 in 6.0 mi West 10.4 mph - N/A   Haze
2:53 PM 63.0 °F 50.0 °F 63% 30.18 in 6.0 mi WNW 11.5 mph - N/A   Haze
3:53 PM 62.1 °F 48.0 °F 60% 30.18 in 7.0 mi WNW 11.5 mph 17.3 mph N/A   Clear
4:48 PM 57.2 °F 51.8 °F 82% 30.19 in 7.0 mi NW 12.7 mph - N/A   Mostly Cloudy
4:53 PM 57.0 °F 51.1 °F 81% 30.19 in 6.0 mi WNW 9.2 mph - N/A   Haze
5:02 PM 57.0 °F 51.1 °F 81% 30.18 in 6.0 mi NNW 12.7 mph - N/A   Haze
5:42 PM 57.0 °F 51.1 °F 81% 30.18 in 7.0 mi WNW 9.2 mph - N/A   Overcast
5:53 PM 57.0 °F 52.0 °F 83% 30.19 in 7.0 mi NW 12.7 mph - N/A   Overcast
6:02 PM 55.9 °F 52.0 °F 87% 30.18 in 7.0 mi NNW 8.1 mph 17.3 mph N/A   Overcast
6:53 PM 55.9 °F 52.0 °F 87% 30.19 in 6.0 mi NW 9.2 mph - N/A   Overcast
7:09 PM 55.0 °F 52.0 °F 89% 30.18 in 6.0 mi NW 5.8 mph - N/A   Overcast
7:53 PM 54.0 °F 52.0 °F 93% 30.19 in 5.0 mi NNW 6.9 mph - N/A   Overcast
8:25 PM 54.0 °F 53.1 °F 97% 30.18 in 2.5 mi North 5.8 mph - N/A   Overcast
8:36 PM 54.0 °F 53.1 °F 97% 30.18 in 3.0 mi NNW 3.5 mph - N/A   Overcast
8:53 PM 53.1 °F 53.1 °F 100% 30.18 in 3.0 mi Variable 3.5 mph - 0.00 in Rain Light Rain
9:05 PM 53.1 °F 53.1 °F 100% 30.18 in 2.5 mi Variable 5.8 mph - 0.00 in Rain Light Rain
9:13 PM 53.1 °F 52.0 °F 96% 30.18 in 5.0 mi NNW 4.6 mph - 0.00 in Rain Light Rain
9:42 PM 53.1 °F 53.1 °F 100% 30.18 in 2.5 mi Variable 3.5 mph - 0.00 in Rain Light Rain
9:49 PM 53.6 °F 53.6 °F 100% 30.18 in 4.0 mi NNW 3.5 mph - 0.00 in   Overcast
9:53 PM 53.1 °F 53.1 °F 100% 30.19 in 4.0 mi Calm Calm - 0.00 in   Overcast
10:24 PM 53.1 °F 53.1 °F 100% 30.19 in 2.0 mi Calm Calm - 0.00 in Rain Light Rain
10:35 PM 53.1 °F 53.1 °F 100% 30.19 in 3.0 mi WNW 3.5 mph - 0.00 in   Overcast
10:53 PM 53.1 °F 53.1 °F 100% 30.19 in 5.0 mi WNW 3.5 mph - 0.00 in   Overcast
11:08 PM 53.1 °F 53.1 °F 100% 30.19 in 1.8 mi Calm Calm - 0.00 in Rain Light Rain
11:15 PM 53.1 °F 53.1 °F 100% 30.19 in 3.0 mi WNW 3.5 mph - 0.00 in   Overcast
11:39 PM 53.1 °F 53.1 °F 100% 30.18 in 1.8 mi Variable 3.5 mph - 0.00 in   Overcast
11:48 PM 53.6 °F 53.6 °F 100% 30.18 in 2.5 mi Calm Calm - 0.00 in   Overcast
11:53 PM 53.1 °F 53.1 °F 100% 30.18 in 2.5 mi Calm Calm - 0.00 in   Overcast